Regional Weather Roundup
Issued by NWS Bismarck, ND

Home | Current Version | Previous Version | Text Only | Print | Product List | Glossary On
Versions: 1 2 3 4 5 6 7 8 9 10 11 12 13 14 15 16 17 18 19 20 21 22 23 24 25 26 27 28 29 30 31 32 33 34 35 36 37 38 39 40 41 42 43 44 45 46 47 48 49 50
172
ASUS43 KBIS 030310
RWRBIS

NWR BROADCAST TEXT
NATIONAL WEATHER SERVICE BISMARCK ND
1000 PM CDT MON MAY 02 2016

NOTE: "FAIR" INDICATES FEW OR NO CLOUDS BELOW 12,000 FEET WITH NO
SIGNIFICANT WEATHER AND/OR OBSTRUCTIONS TO VISIBILITY.


CITY           SKY/WX    TMP DP  RH WIND       PRES   REMARKS
WILLISTON      CLOUDY    51  34  52 CALM      29.99R
MINOT          CLEAR     62  35  36 S3        29.98S
MINOT AFB      NOT AVBL
BISMARCK       CLEAR     51  43  74 E3        30.01R
DICKINSON      CLEAR     52  32  46 E5        30.01R
GARRISON         N/A     56  36  47 CALM      30.00R
HETTINGER ARPT CLEAR     45  32  60 NE6       30.04R
JAMESTOWN      CLEAR     47  39  74 SE5       30.00S
BEACH          FAIR      48  34  57 SE5       30.06R
CARRINGTON     FAIR      48  37  66 S7        30.03R
HAZEN          FAIR      45  37  76 SE5       30.03R
LINTON         FAIR      46  46 100 SE5       30.03R
MANDAN         FAIR      52  41  66 SE6       30.02R
OAKES            N/A    N/A N/A N/A MISG        N/A
RUGBY          FAIR      55  36  47 SW8       29.98S
STANLEY        FAIR      55  34  44 S3        30.02S
TIOGA          FAIR      48  32  53 CALM      30.05S
WATFORD CITY   FAIR      52  34  50 SE7       30.01R
$$

CITY           SKY/WX    TMP DP  RH WIND       PRES   REMARKS
GRAND FORKS    PTCLDY    58  37  45 W10       29.95R
GRAND FORKS AF NOT AVBL
DEVILS LAKE    PTCLDY    55  39  54 SW10      29.99S
FARGO          CLEAR     57  36  45 W9        29.97R
CANDO          FAIR      55  34  44 SW8       30.00S
CAVALIER       FAIR      57  39  51 CALM      29.93S
GRAFTON        FAIR      59  37  44 W6        29.95S
GWINNER        FAIR      54  37  54 NW7       30.01S
LANGDON        FAIR      52  36  54 SW12      29.97R
ROLLA          FAIR      54  36  50 SW9       29.98S
WALHALLA       FAIR      59  39  47 W5        29.94S
$$

CITY           SKY/WX    TMP DP  RH WIND       PRES   REMARKS
ABERDEEN       CLEAR     47  37  68 CALM      30.01R
MOBRIDGE       CLEAR     50  44  80 E3        29.99R
BUFFALO          N/A     51  34  52 NE12      29.98R
RAPID CITY     CLEAR     47  37  68 N9        30.02R
GLASGOW        CLEAR     63  41  44 N8        30.01S
SIDNEY         CLOUDY    54  34  47 NW5       30.01R
WOLF POINT     CLEAR     61  40  45 N8        30.00R
GLENDIVE       CLEAR     61  32  33 NE6       30.04S
MILES CITY     CLEAR     59  41  51 W7        30.03S
BAKER          CLEAR     52  35  52 SE3       30.04R
$$

CITY           SKY/WX    TMP DP  RH WIND       PRES   REMARKS
BILLINGS       CLEAR     61  35  37 E7        30.11S
GREAT FALLS    CLEAR     59  36  42 SE6       30.09S
REGINA         PTCLDY    64  28  25 CALM      30.00R
ESTEVAN        MOCLDY    54  32  43 N3        29.98R
$$





USA.gov is the U.S. government's official web portal to all federal, state and local government web resources and services.